Regional Weather Roundup
Issued by NWS

Home | Current Version | Previous Version | Graphics & Text | Print | Product List | Glossary On
Versions: 1 2 3 4 5 6 7 8 9 10 11 12 13 14 15 16 17 18 19 20 21 22 23 24 25 26 27 28
000
ASUS45 KCYS 230810
RWRWY

WYOMING REGIONAL WEATHER ROUNDUP
NATIONAL WEATHER SERVICE CHEYENNE WY
200 AM MDT WED APR 23 2014

NOTE:  "FAIR" INDICATES FEW OR NO CLOUDS BELOW 12,000 FEET
WITH NO SIGNIFICANT WEATHER AND/OR OBSTRUCTIONS TO VISIBILITY.

WYZ001-230900-
YELLOWSTONE NATIONAL PARK

CITY           SKY/WX    TMP DP  RH WIND       PRES   REMARKS
LK YELLOWSTONE   N/A     30  26  85 VRB5      29.69F WCI  25
W YELLOWSTONE  NOT AVBL

$$
WYZ002>013-054>058-071-098>099-230900-
NORTHERN WYOMING

CITY           SKY/WX    TMP DP  RH WIND       PRES   REMARKS
JACKSON        CLOUDY    34  32  93 SW7       29.72R WCI  28
CODY           CLOUDY    52  27  37 W16G22    29.49R
GREYBULL       CLOUDY    60  38  43 SE7       29.43R
WORLAND        CLOUDY    54  39  57 S14       29.45F
SHERIDAN         N/A     46  36  66 W17G24      N/A
BUFFALO        MOCLDY    59  31  34 CALM      29.43R
GILLETTE       PTCLDY    50  42  74 S12       29.45S
HULETT         FAIR      64  36  34 S16G30    29.44
NEWCASTLE      FAIR      57  41  54 SE17      29.50

$$
WYZ014>020-022>026-101>103-230900-
CENTRAL WYOMING

CITY           SKY/WX    TMP DP  RH WIND       PRES   REMARKS
BIG PINEY      PTCLDY    31  23  72 NW9       29.73F WCI  23
PINEDALE       PTSUNNY   32  27  80 W9        29.71F WCI  24
DUBOIS         FAIR      36  21  55 W30G37    29.59S WCI  22
LANDER         PTCLDY    49  33  54 NW12      29.54R
RIVERTON       PTCLDY    46  37  71 S14       29.55R
CASPER         CLOUDY    52  36  54 W20G25    29.57R
DOUGLAS        MOCLDY    50  38  63 S8        29.53F

$$
WYZ021-027>030-104>119-230900-
SOUTHERN WYOMING

CITY           SKY/WX    TMP DP  RH WIND       PRES   REMARKS
EVANSTON       CLOUDY    31  30  96 SW17      29.83R WCI  19
FORT BRIDGER   FAIR      33  32  95 W18G25    29.82S WCI  22
ROCK SPRINGS   CLOUDY    36  29  75 W22       29.78R WCI  25
DIXON          RAIN      46  42  86 W24G30    29.74R
RAWLINS        LGT RAIN  43  37  81 W28G36    29.69F
SARATOGA       FAIR      50  32  50 S10G25    29.69F
LARAMIE        PTCLDY    49  29  46 S8        29.67F
CHEYENNE       MOCLDY    54  34  46 S6        29.64F
TORRINGTON     CLOUDY    51  42  71 E7        29.51F
PINE BLUFFS    FAIR      50  39  66 S12       29.61S

$$



USA.gov is the U.S. government's official web portal to all federal, state and local government web resources and services.